Wetbulb
45.55 40.32 38.29 41.27 43.41 43.75 42.49 40.55 39.32 42.73 44.39 41.34 40.28 41.16 43.02 44.35 44.98 44.56 45.56 46.34 46.40 45.47 46.30 47.05 46.66 44.70 43.20 41.80 40.55 40.21 38.87 38.69 39.48 37.22 35.22 34.26 34.92 34.64 34.09 35.40 35.86 35.57 35.26 35.06
41.38 38.25 43.76 44.61 43.82 41.61 40.22 38.47 38.65 42.10 43.66 40.53 39.45 39.65 42.67 43.36 44.47 45.72 45.56 45.84 46.11 43.53 44.55 43.69 43.44 43.00 42.75 41.16 40.14 39.67 39.24 38.89 39.02 37.92 36.22 35.00 35.06 34.41 34.38 35.29 34.88 35.29 34.55 34.00
39.73 42.10 45.12 43.38 41.05 40.46 39.68 37.33 38.03 38.27 40.72 38.86 36.13 35.36 38.45 41.89 44.48 44.94 45.18 46.06 44.61 43.60 43.68 41.83 41.76 42.09 41.17 40.02 39.87 39.59 39.31 39.00 38.82 37.32 36.33 33.82 33.28 32.72 31.66 32.37 32.51 33.64 33.93 33.08
41.04 44.67 43.31 41.29 40.07 40.79 36.49 41.18 40.33 39.63 35.60 30.91 36.96 30.98 36.69 38.66 40.78 41.76 43.21 44.42 42.79 42.64 43.76 42.68 41.19 40.42 40.28 40.01 39.80 39.66 39.37 38.79 38.49 36.92 35.32 32.93 31.06 29.28 30.81 32.07 32.75 32.66 33.02 32.14
39.00 38.91 38.39 38.40 39.99 41.73 37.90 38.53 36.95 36.50 34.16 32.38 33.04 30.43 34.48 39.75 38.03 39.95 42.04 44.46 44.39 44.09 43.18 41.55 41.13 41.40 40.80 39.59 39.11 39.00 38.43 38.17 37.93 36.67 35.22 32.83 30.40 31.12 32.09 31.53 30.57 29.94 30.54 31.18
39.61 40.78 39.46 39.93 38.74 38.91 38.83 36.38 35.49 33.51 31.83 26.25 32.77 32.95 31.56 35.64 38.72 39.66 41.48 42.78 42.96 42.20 41.21 41.21 40.66 40.30 39.89 38.65 37.89 38.50 37.82 37.54 37.06 35.71 34.10 33.16 32.10 31.37 30.11 28.55 28.42 28.64 28.96 28.83
37.13 38.00 38.32 39.78 36.82 36.70 36.05 33.48 26.11 24.44 23.53 27.59 35.03 31.30 36.77 38.82 40.19 41.14 41.17 41.88 41.70 42.35 40.16 39.57 38.63 38.33 38.03 37.33 37.41 37.38 37.12 36.37 35.94 34.55 33.66 33.10 32.62 31.65 30.56 29.83 28.84 27.75 26.86 26.52
32.74 32.48 37.31 38.66 38.66 36.94 33.63 35.13 27.33 20.06 25.47 29.90 29.52 27.45 34.81 41.38 42.79 42.43 42.60 42.35 42.07 41.19 40.76 39.55 38.95 38.45 38.16 37.66 36.83 36.71 36.26 35.90 35.12 33.88 32.96 33.05 32.29 33.04 31.50 30.34 29.43 27.26 26.22 26.26
33.26 33.88 35.88 37.75 37.83 39.48 34.56 30.55 36.28 28.61 22.67 23.32 31.96 34.67 38.79 40.46 40.82 40.65 40.03 39.83 39.38 39.84 40.21 40.19 39.61 38.42 37.09 37.10 36.64 36.42 36.20 35.82 35.08 33.85 33.04 32.53 32.47 30.25 29.70 27.75 26.81 25.70 25.26 26.49
37.11 33.13 37.05 33.93 34.66 34.67 33.62 35.61 28.64 29.24 17.99 16.70 29.68 30.62 34.07 38.39 40.67 38.80 38.01 38.56 39.30 39.72 39.94 39.74 39.56 38.58 38.26 37.79 37.22 36.66 36.32 35.29 34.80 33.41 32.72 32.11 30.88 28.49 27.37 25.99 24.90 24.39 24.01 23.76
37.41 35.86 33.11 33.31 30.68 32.50 29.71 29.88 31.95 32.80 30.57 21.34 24.27 30.33 36.14 37.45 38.75 39.05 38.91 39.48 40.39 40.64 39.65 39.40 39.34 39.01 38.24 37.20 36.49 35.64 35.15 34.27 33.39 31.76 31.19 29.89 28.29 26.81 25.65 25.34 24.16 23.35 23.28 22.55
39.42 36.06 29.89 34.26 38.06 34.94 35.90 34.48 35.37 29.74 27.67 26.76 30.01 31.34 40.44 39.12 38.83 39.19 39.24 41.14 41.55 41.88 41.55 40.67 39.91 38.39 37.38 36.91 35.53 34.87 34.51 33.78 33.12 31.36 29.98 28.34 26.53 25.66 24.65 23.55 22.89 22.71 21.56 21.52
37.71 31.88 27.00 28.78 34.86 32.82 31.22 34.02 36.06 35.78 33.44 29.96 26.36 30.27 41.20 42.28 41.26 40.07 39.28 40.15 40.58 41.44 41.03 41.23 39.19 37.59 37.42 36.50 35.38 34.62 33.92 33.61 32.35 30.41 29.24 26.90 25.56 24.52 23.46 22.68 22.24 21.46 20.62 19.71
40.33 33.74 30.89 27.34 31.43 35.42 31.29 32.41 32.96 33.83 29.27 29.71 30.14 32.30 37.62 39.93 40.59 41.95 42.55 43.08 40.33 40.13 41.37 40.68 39.44 38.18 37.63 36.63 35.60 34.68 33.64 33.10 31.78 29.78 28.01 25.83 24.28 23.52 22.40 21.84 20.83 20.04 19.19 18.24
38.73 30.04 31.45 33.34 34.87 34.13 32.68 33.05 33.88 32.30 32.78 28.54 32.20 33.01 37.01 39.52 40.32 41.63 43.02 42.65 41.71 40.83 41.03 39.72 39.00 38.64 38.12 35.37 34.70 34.11 33.92 32.28 31.59 28.89 26.58 24.59 23.44 22.45 21.42 20.30 19.31 18.50 17.81 16.88
38.50 31.52 31.81 29.60 32.16 32.09 29.85 32.68 33.47 32.94 33.65 34.10 34.71 33.74 40.38 41.35 42.14 41.72 41.92 42.42 41.85 41.98 42.94 42.36 38.36 35.92 35.06 34.17 34.76 33.03 32.50 31.03 29.82 26.95 24.61 23.62 21.62 21.04 20.01 18.64 17.71 16.90 16.31 16.13
33.24 31.91 30.08 27.29 31.72 30.66 27.02 31.30 32.87 33.97 36.04 35.31 30.97 36.42 41.10 40.26 40.92 41.74 42.65 43.21 43.04 42.49 42.36 38.77 37.62 36.32 34.20 34.24 33.07 31.36 31.43 29.79 27.30 24.85 23.39 21.49 20.51 18.67 17.86 17.27 16.12 15.66 15.21 15.52
36.13 33.55 32.53 28.81 31.10 21.43 31.69 37.77 36.76 34.95 36.67 37.99 37.76 39.18 40.95 41.39 42.97 43.52 43.21 41.33 41.86 42.72 42.77 41.04 35.33 36.32 35.20 33.08 29.88 28.89 28.72 26.97 25.15 23.37 21.82 20.11 18.75 17.50 16.54 15.70 15.07 14.71 14.80 14.29
39.86 36.16 31.21 27.46 27.14 30.83 32.13 36.01 34.68 33.05 33.19 38.89 37.97 39.65 40.86 41.90 41.64 41.58 44.76 44.68 44.07 43.46 43.70 42.64 37.20 36.28 35.06 30.71 29.08 27.83 25.52 23.70 22.16 20.88 19.68 18.27 18.20 16.64 15.35 14.23 13.71 14.19 14.13 13.83
37.57 37.95 33.04 30.93 26.11 23.56 32.61 38.13 40.54 39.54 29.29 39.43 40.35 39.73 39.59 40.12 33.90 37.90 43.61 43.22 39.09 39.47 38.85 37.38 35.78 34.27 30.60 26.74 27.04 25.36 22.52 21.17 20.38 20.30 18.99 18.06 17.41 15.51 14.34 14.16 13.66 14.23 14.12 13.27
30.68 31.59 29.22 29.89 27.94 30.60 36.74 38.58 38.61 26.77 31.13 40.46 40.93 40.67 39.92 37.06 38.77 41.54 39.01 37.60 36.56 37.00 36.72 33.04 31.53 30.80 27.98 26.02 24.93 23.07 20.93 19.86 21.13 19.98 17.66 15.99 15.44 14.05 14.48 13.00 12.78 12.22 11.78 12.37
29.46 27.52 27.49 29.07 26.09 23.58 35.93 35.13 31.27 35.09 36.04 35.59 35.47 36.84 36.06 38.33 39.60 38.99 38.14 36.01 34.92 34.58 30.63 29.65 26.29 25.36 24.37 23.97 23.59 21.53 19.57 20.63 19.49 17.43 14.79 13.82 13.32 12.70 12.49 11.40 10.12 9.01 10.14 9.62
22.36 23.84 20.14 23.49 25.20 33.85 33.52 29.91 32.46 36.53 32.34 33.11 33.89 34.63 35.32 35.17 36.29 37.26 36.68 37.07 36.28 33.58 28.83 24.21 24.03 21.75 20.60 21.40 22.09 20.14 19.66 18.65 16.29 13.94 12.21 9.76 9.99 9.09 9.01 8.36 7.03 7.85 8.56 9.58
22.74 27.48 22.57 21.89 29.69 26.58 27.56 31.63 33.76 32.52 30.11 30.93 31.21 31.58 33.69 33.58 34.81 34.22 34.90 35.64 34.92 29.38 29.94 22.96 21.53 21.11 19.05 17.81 20.08 18.27 18.26 16.61 13.00 10.82 9.38 7.99 7.40 6.11 6.89 9.06 8.98 9.39 8.66 10.18
20.33 21.77 18.65 18.80 23.82 26.34 28.16 30.18 30.30 29.83 29.47 28.45 30.49 31.36 31.76 32.24 32.26 34.05 35.39 35.89 35.85 32.08 26.33 23.42 23.77 24.35 24.18 20.23 20.31 18.71 15.27 13.74 12.10 9.64 7.89 7.45 6.82 6.70 7.39 9.37 9.82 11.06 12.18 12.18
22.49 20.41 17.66 16.29 24.72 24.23 24.86 27.07 28.67 23.84 22.73 24.20 26.73 27.25 27.92 29.39 29.61 31.62 31.77 32.06 31.63 32.35 31.05 24.15 24.05 24.55 23.57 20.14 19.39 14.54 13.84 12.93 11.31 10.45 8.04 6.85 6.28 7.44 8.40 8.53 10.24 15.54 14.58 16.75
MSLP
1012.16 1012.31 1011.39 1010.38 1010.69 1010.09 1009.97 1009.76 1009.26 1007.66 1007.89 1008.97 1008.65 1008.15 1007.70 1007.24 1006.65 1006.47 1006.05 1005.34 1005.11 1005.08 1004.78 1005.09 1006.37 1007.55 1008.89 1010.23 1011.67 1012.98 1014.20 1015.02 1015.80 1016.62 1017.54 1018.33 1018.78 1019.07 1019.50 1019.72 1020.03 1020.49 1020.93 1021.37
1011.97 1010.92 1009.75 1010.12 1009.84 1009.85 1009.73 1009.56 1008.74 1007.78 1007.53 1008.33 1008.16 1007.71 1007.08 1006.90 1006.04 1005.32 1005.13 1004.68 1004.00 1004.45 1004.52 1005.04 1006.04 1007.44 1008.44 1009.70 1011.05 1012.32 1013.38 1014.29 1015.04 1015.92 1016.69 1017.40 1018.08 1018.68 1019.05 1019.46 1019.88 1020.24 1020.64 1021.02
1010.00 1009.05 1009.44 1009.76 1009.67 1009.94 1009.31 1009.56 1008.90 1008.49 1008.23 1008.52 1008.19 1007.40 1006.60 1005.66 1004.95 1004.60 1004.09 1003.27 1003.38 1003.85 1004.54 1005.25 1006.28 1007.18 1008.25 1009.14 1010.03 1011.15 1012.29 1013.24 1014.10 1015.03 1016.07 1016.84 1017.64 1018.16 1018.77 1019.08 1019.50 1019.92 1020.38 1020.83
1009.29 1008.83 1008.92 1009.40 1009.30 1010.06 1008.74 1009.07 1008.84 1008.91 1009.28 1008.94 1008.05 1005.05 1005.17 1004.70 1004.34 1004.05 1003.23 1002.51 1002.53 1003.07 1003.59 1004.69 1005.79 1006.91 1007.74 1008.81 1009.86 1010.78 1011.64 1012.58 1013.50 1014.26 1015.19 1015.89 1016.42 1017.39 1017.58 1018.01 1018.76 1019.34 1019.77 1020.20
1008.28 1008.52 1008.81 1009.06 1008.78 1009.50 1009.25 1009.20 1009.37 1009.47 1009.55 1009.19 1008.70 1007.78 1003.57 1003.56 1003.43 1002.91 1002.56 1001.94 1001.74 1002.37 1002.87 1004.14 1005.16 1006.05 1007.41 1008.44 1009.35 1010.32 1011.19 1011.90 1012.60 1013.41 1013.99 1014.96 1015.90 1016.46 1016.86 1017.63 1018.47 1019.11 1019.55 1019.77
1008.79 1008.99 1009.10 1008.82 1009.25 1009.38 1009.68 1009.94 1010.13 1010.23 1010.24 1008.33 1007.77 1007.07 1002.27 1002.52 1001.83 1001.49 1001.39 1001.18 1001.27 1002.01 1003.07 1003.92 1004.77 1005.84 1006.98 1008.00 1008.91 1009.78 1010.61 1011.33 1012.05 1012.89 1013.74 1014.12 1014.80 1015.55 1016.32 1017.22 1018.08 1018.62 1019.05 1019.32
1008.42 1008.42 1008.77 1009.08 1009.65 1010.18 1010.20 1010.64 1011.03 1010.90 1010.45 1006.14 1005.75 1004.64 1001.20 1000.95 1000.64 1000.49 1000.68 1000.44 1000.45 1001.56 1002.85 1003.72 1004.66 1005.53 1006.47 1007.44 1008.34 1009.23 1010.03 1010.78 1011.52 1012.33 1013.11 1013.61 1013.90 1014.53 1015.17 1015.97 1016.90 1017.88 1018.48 1018.85
1008.20 1007.53 1008.20 1008.36 1008.47 1008.33 1009.45 1009.87 1010.48 1010.12 1009.11 1005.74 1005.35 1001.79 999.92 999.57 999.12 998.73 998.91 999.37 1000.29 1001.38 1002.32 1003.48 1004.22 1005.06 1005.88 1006.67 1007.62 1008.47 1009.18 1009.85 1010.64 1011.39 1012.01 1012.83 1013.39 1013.70 1014.45 1015.20 1015.94 1016.81 1017.34 1017.87
1006.83 1006.38 1007.08 1007.56 1008.06 1008.33 1008.53 1008.85 1008.26 1009.06 1008.54 1007.85 1003.00 1000.83 998.99 998.62 998.61 998.56 998.58 999.47 1000.52 1001.44 1002.25 1002.88 1003.79 1004.47 1005.11 1005.90 1006.48 1007.09 1008.04 1008.85 1009.61 1010.33 1011.24 1011.98 1012.91 1013.35 1013.63 1014.47 1015.30 1016.07 1016.73 1017.36
1005.56 1006.12 1005.94 1007.82 1008.26 1008.25 1008.32 1008.31 1008.40 1008.76 1008.86 1007.16 1002.60 1001.38 998.92 999.06 998.25 998.18 999.12 999.69 1000.15 1000.92 1001.89 1002.52 1003.09 1003.80 1004.65 1005.26 1005.82 1006.64 1007.43 1008.07 1008.69 1009.67 1010.44 1011.16 1012.01 1012.82 1013.44 1014.05 1014.78 1015.58 1016.39 1017.00
1005.92 1006.83 1006.55 1007.65 1007.64 1007.20 1008.16 1008.09 1008.04 1007.51 1007.23 1005.75 1004.25 999.62 996.93 997.72 997.59 998.05 998.68 999.47 1000.10 1000.52 1001.26 1001.66 1002.22 1002.77 1003.41 1004.35 1005.02 1005.79 1006.55 1007.20 1007.91 1008.67 1009.78 1010.61 1011.39 1012.15 1012.92 1013.72 1014.35 1014.97 1015.74 1016.46
1006.27 1007.01 1007.52 1006.48 1005.76 1006.18 1006.28 1006.14 1006.30 1006.01 1005.22 1004.44 1003.16 998.92 997.42 997.71 997.64 998.04 998.60 998.88 999.11 999.32 1000.02 1000.70 1001.03 1001.82 1002.63 1003.32 1004.19 1004.54 1005.65 1006.21 1006.78 1007.80 1008.87 1009.93 1010.80 1011.56 1012.42 1013.33 1014.10 1014.95 1015.78 1016.50
1008.97 1007.84 1007.94 1007.00 1006.86 1006.52 1006.57 1005.58 1005.47 1004.86 1004.31 1003.68 1002.05 999.43 998.26 997.16 997.66 997.60 997.95 998.36 998.64 999.06 999.49 999.59 1000.31 1001.07 1001.68 1002.37 1003.03 1003.62 1004.33 1005.04 1006.03 1007.07 1008.07 1009.10 1010.14 1011.14 1011.99 1012.96 1013.92 1014.74 1015.57 1016.34
1008.50 1009.88 1009.53 1008.43 1007.11 1006.85 1006.51 1005.64 1005.15 1004.92 1004.31 1003.05 1001.50 999.99 998.45 997.31 997.44 996.67 996.90 997.26 997.86 998.14 998.62 998.86 999.22 999.68 1000.17 1000.72 1001.52 1002.39 1003.11 1003.93 1004.92 1006.10 1007.40 1008.45 1009.47 1010.73 1011.76 1013.02 1014.12 1014.96 1015.61 1016.37
1008.57 1008.33 1008.78 1008.12 1007.78 1006.76 1006.13 1005.49 1005.19 1004.79 1003.96 1003.00 1001.21 999.65 998.88 996.94 996.84 996.07 995.67 995.95 996.69 997.27 997.92 998.20 998.64 998.80 999.03 999.91 1000.40 1001.17 1001.84 1002.88 1004.07 1005.42 1006.73 1008.04 1009.38 1010.36 1011.47 1012.71 1013.76 1014.72 1015.55 1016.29
1007.48 1007.11 1007.70 1007.25 1007.01 1006.70 1005.51 1004.72 1004.18 1002.58 1002.23 1001.37 1000.24 999.29 996.76 996.44 995.98 994.94 994.67 994.52 995.74 995.98 996.26 996.76 997.25 997.64 998.20 998.75 999.08 999.84 1000.90 1001.91 1003.04 1004.53 1006.12 1007.51 1008.94 1010.10 1011.13 1012.13 1013.11 1014.08 1014.93 1015.68
1006.41 1006.12 1006.04 1004.81 1005.03 1004.80 1003.97 1003.40 1001.72 1001.39 1000.25 999.16 998.52 996.23 995.27 995.28 994.95 993.87 993.33 994.18 994.41 994.40 994.78 995.68 996.10 996.42 996.98 997.59 998.07 998.91 999.90 1001.30 1002.70 1003.92 1005.29 1006.70 1008.10 1009.30 1010.44 1011.64 1012.73 1013.77 1014.56 1015.42
1004.06 1004.64 1004.55 1002.81 1003.51 1000.59 999.41 1000.01 1000.16 998.20 997.51 996.73 995.85 995.01 994.42 993.97 992.46 993.23 993.88 994.00 993.53 993.79 994.20 994.45 994.99 995.52 995.74 996.19 997.35 998.62 999.92 1001.23 1002.51 1003.81 1004.80 1006.07 1007.53 1008.88 1009.94 1011.04 1011.93 1013.17 1014.16 1014.88
1002.15 1002.37 1002.06 1001.69 999.96 998.17 997.73 997.52 996.88 996.34 994.44 994.81 994.93 994.18 993.26 993.24 993.57 992.98 992.88 992.73 993.11 993.38 993.37 993.65 993.84 994.44 994.97 995.47 996.60 998.02 999.63 1000.94 1002.39 1003.37 1004.20 1005.38 1006.76 1008.16 1009.72 1011.03 1011.80 1012.52 1013.46 1014.18
1001.39 1001.14 1000.82 1000.12 997.95 996.36 995.79 996.21 995.84 994.68 993.47 994.77 993.21 991.91 992.65 992.96 993.59 992.17 992.11 992.16 992.54 992.45 992.73 992.96 993.41 994.06 994.81 995.86 996.72 997.86 999.10 1000.30 1001.30 1001.92 1002.91 1004.66 1006.02 1006.97 1008.60 1009.56 1011.12 1011.90 1012.59 1013.25
1001.02 1000.44 999.35 998.16 996.58 996.06 995.98 995.52 995.56 995.64 993.70 994.16 994.24 993.63 993.45 993.56 992.91 992.04 992.25 992.11 992.00 992.24 992.54 992.96 993.69 994.38 994.95 995.98 996.98 997.97 998.59 999.02 999.91 1001.76 1003.16 1004.29 1005.52 1006.58 1007.71 1009.38 1010.28 1011.38 1012.18 1012.75
1001.67 1000.61 999.56 999.00 998.13 997.08 997.45 996.46 997.92 997.88 996.96 997.65 997.45 997.46 996.87 996.34 995.71 995.02 994.53 994.50 993.92 993.82 993.78 994.02 994.92 995.51 995.97 996.59 997.68 998.18 998.19 998.95 1000.02 1001.64 1003.10 1004.48 1005.44 1006.44 1007.28 1008.77 1010.01 1011.01 1011.60 1012.71
1003.75 1003.30 1002.88 1002.29 999.83 999.37 999.35 999.91 999.54 999.94 998.42 998.90 998.73 998.36 997.99 997.20 996.72 996.55 996.22 995.87 995.21 994.95 995.45 995.21 995.70 996.18 996.56 997.00 997.38 997.91 998.35 999.30 1000.37 1001.82 1002.76 1004.13 1005.51 1005.97 1006.78 1008.08 1009.20 1010.61 1011.63 1012.14
1004.59 1003.80 1003.32 1002.72 1000.49 1000.09 999.17 998.02 998.37 999.82 999.70 999.36 999.02 998.81 998.47 996.92 996.77 996.39 995.42 994.65 994.45 994.56 995.13 995.40 995.86 996.18 996.56 996.72 997.50 998.15 998.87 999.98 1001.24 1002.36 1003.23 1004.50 1005.52 1006.31 1006.77 1007.38 1008.72 1009.34 1010.09 1011.23
1006.22 1004.81 1003.18 1002.06 1001.80 1000.37 1000.61 1000.03 1000.22 999.82 1000.30 998.77 999.37 999.75 997.28 996.45 996.87 997.08 995.71 994.41 993.96 993.95 994.45 994.47 994.93 994.97 994.92 995.65 996.47 997.51 998.54 999.45 1001.11 1002.39 1002.84 1003.98 1005.41 1006.42 1006.81 1007.09 1007.57 1008.12 1009.38 1009.96
1006.20 1005.04 1004.03 1002.68 1002.41 1002.19 1001.39 1000.98 1001.07 1000.74 1000.00 1000.79 1000.41 998.61 998.46 997.47 997.37 996.86 996.12 994.09 993.48 993.28 993.49 993.31 993.60 993.80 993.70 994.51 995.07 995.97 996.89 998.27 1000.05 1000.94 1002.50 1003.03 1004.53 1005.32 1005.14 1005.99 1007.54 1008.43 1009.02 1009.64
Wind_Speed
7 6 13 15 17 17 15 16 17 23 11 10 16 19 16 11 14 14 17 19 16 13 9 14 16 11 12 13 14 14 13 11 10 7 6 4 6 4 4 4 7 7 5 5
4 13 21 9 12 7 9 14 22 20 12 8 10 14 12 10 16 21 18 20 20 7 7 9 12 11 14 16 14 15 15 14 11 9 6 4 6 4 4 4 6 6 7 6
20 10 14 7 8 10 13 12 16 17 9 6 5 8 13 9 17 16 17 22 12 10 10 9 11 12 13 16 18 17 17 16 14 11 7 3 4 4 3 5 5 5 7 6
17 18 20 15 18 11 22 9 10 12 7 7 4 16 9 6 12 11 15 18 11 11 8 10 11 12 16 14 14 16 16 16 14 12 11 11 8 7 5 5 5 6 8 7
8 4 6 9 12 10 7 2 2 4 6 6 5 12 6 10 10 12 12 16 12 10 12 11 14 16 14 12 14 14 14 15 15 14 14 11 7 5 5 5 9 6 6 7
15 5 3 4 3 2 3 2 3 3 2 11 12 13 4 7 9 6 10 14 12 8 9 9 9 10 12 11 12 14 15 15 14 14 13 15 14 9 9 7 7 5 5 5
7 18 2 4 4 2 3 3 5 5 1 18 10 12 15 5 8 11 13 14 10 10 11 10 12 13 13 15 15 13 16 16 14 14 15 14 14 13 14 12 8 8 5 4
3 10 15 9 13 8 10 9 8 8 12 23 5 12 9 11 12 10 15 12 9 9 9 10 11 13 14 15 16 16 18 17 16 16 16 13 12 10 9 10 9 7 6 6
8 12 4 6 2 9 7 7 4 2 3 4 11 14 10 9 11 10 9 7 8 8 9 11 10 11 11 14 19 20 19 18 17 17 14 14 12 10 10 10 7 6 6 6
5 11 8 4 3 3 3 1 3 2 3 9 20 16 17 14 19 6 5 7 7 9 9 9 9 10 11 13 14 16 16 18 15 15 14 12 12 8 8 9 9 8 7 7
3 5 6 7 9 11 3 4 5 1 6 6 11 17 5 10 6 9 8 5 7 9 10 10 10 10 12 11 14 15 16 16 16 15 13 12 11 10 9 10 9 9 7 8
9 3 6 16 8 2 5 11 13 12 16 5 11 28 8 6 8 9 7 7 8 10 10 10 12 11 12 13 13 16 15 16 16 14 13 12 10 11 12 10 9 8 7 7
10 3 2 9 14 1 6 6 12 11 11 18 19 24 12 22 17 9 9 9 9 11 9 10 8 12 14 13 13 15 15 17 13 13 15 13 13 13 12 11 10 9 9 8
9 5 8 14 17 15 11 13 12 14 12 20 22 25 33 29 25 26 21 17 10 10 13 12 9 11 14 15 15 16 15 16 15 15 15 15 14 13 11 10 9 9 8 8
6 11 18 24 24 25 23 24 23 23 18 21 25 28 27 31 23 26 24 18 13 11 12 11 12 11 13 11 13 14 15 16 15 16 15 15 12 12 11 10 9 9 8 7
11 10 14 25 31 32 30 28 26 31 31 33 36 33 36 30 27 33 29 28 19 17 19 17 12 11 11 14 16 15 14 15 16 17 15 14 14 13 13 12 12 11 10 9
8 9 9 21 24 28 26 34 37 34 33 30 31 39 39 34 33 34 33 23 24 17 15 9 12 11 10 12 13 15 15 13 16 16 16 16 16 15 15 13 12 11 10 9
19 21 15 20 17 26 18 23 34 38 35 34 35 38 36 32 37 26 11 14 20 19 21 16 9 9 10 8 9 9 12 15 16 16 16 16 17 15 14 14 13 10 9 10
24 23 16 16 20 24 3 24 27 23 34 33 29 31 34 29 25 26 26 22 21 18 21 17 9 9 8 10 12 14 14 15 16 17 17 18 18 17 15 13 12 11 10 9
27 27 22 20 23 26 16 22 25 29 22 14 24 28 26 22 14 19 23 19 11 12 11 10 6 5 8 7 13 16 16 17 19 20 19 17 17 18 17 15 14 10 9 9
8 16 25 25 22 14 5 17 11 16 21 18 20 23 21 15 12 15 10 10 6 8 9 2 5 6 7 11 13 14 16 20 15 14 14 16 16 16 15 13 11 11 9 8
9 8 8 12 19 27 17 6 12 14 20 21 20 18 19 18 16 14 18 16 11 10 4 3 4 3 3 7 9 12 15 11 13 15 15 15 15 12 12 14 11 10 9 8
7 2 5 7 6 10 10 11 16 9 15 13 14 16 15 17 19 18 17 14 11 11 7 2 2 3 2 5 8 11 9 13 15 15 15 15 14 12 13 13 13 10 8 7
10 15 7 15 4 25 34 25 13 14 13 13 9 12 16 16 18 17 16 16 10 5 8 5 6 7 8 7 7 5 11 13 14 14 15 13 13 13 12 10 9 9 9 8
11 19 14 23 21 22 15 17 21 23 19 16 18 16 13 13 15 14 15 12 9 6 6 7 11 11 13 11 13 9 13 16 15 13 14 14 11 12 11 9 9 9 7 8
11 15 15 18 22 21 24 23 21 16 17 17 16 19 17 16 20 20 18 14 13 15 9 8 11 11 12 14 16 16 18 19 17 17 14 12 11 11 12 12 10 13 14 14
Wind_Direction
192 180 217 215 215 234 255 264 261 271 263 186 230 246 250 246 272 262 262 267 260 255 248 192 177 165 156 153 157 160 159 167 164 159 154 153 171 172 163 167 151 152 157 164
205 220 236 255 259 258 272 275 271 276 292 179 257 259 262 250 257 258 263 267 270 240 244 155 159 159 163 161 160 164 170 175 175 168 166 156 157 181 160 155 157 169 161 170
226 206 215 227 241 261 239 244 262 265 281 217 272 259 250 241 249 262 262 258 253 222 220 170 160 169 161 166 171 174 175 177 178 166 158 118 99 96 125 165 166 170 161 154
253 238 244 248 256 228 268 240 260 270 268 241 93 288 221 236 266 239 250 264 248 222 188 165 164 167 172 177 173 177 178 180 179 169 166 168 169 164 190 167 159 163 162 171
220 174 197 234 235 186 261 64 304 290 270 317 217 275 230 188 243 236 241 254 266 238 177 165 174 172 175 172 178 181 181 185 181 181 174 169 176 172 155 143 145 155 166 172
257 123 222 218 78 103 122 316 246 249 227 254 201 219 173 185 210 215 227 248 243 171 161 170 164 154 172 171 176 183 187 191 184 179 178 180 178 170 152 150 157 167 177 175
229 234 146 143 150 174 170 148 297 306 263 263 181 241 251 217 183 196 217 236 220 161 165 170 165 170 174 182 182 182 189 195 184 180 187 189 182 176 173 169 164 167 168 174
255 274 175 179 213 176 179 176 172 225 258 279 154 253 252 220 228 217 212 231 152 163 162 181 179 182 187 181 183 185 193 194 187 186 190 190 188 184 178 172 168 171 168 163
195 249 38 152 192 159 181 197 211 272 66 320 261 277 282 233 248 241 216 156 168 174 183 182 180 183 182 187 190 192 194 197 194 193 188 191 189 181 174 163 155 160 152 155
249 261 171 145 58 270 187 305 116 240 231 242 279 287 270 271 262 230 154 219 218 201 187 195 192 185 194 196 193 195 198 201 195 189 191 188 184 173 160 155 160 158 155 153
234 225 249 125 200 179 164 237 229 269 187 205 267 273 257 145 154 165 207 208 218 198 205 204 197 197 187 187 190 193 195 192 195 186 184 181 177 168 158 164 161 161 153 149
202 165 250 245 231 230 237 215 203 217 239 236 234 262 185 261 133 139 163 193 221 209 200 199 202 189 190 193 187 193 194 196 194 181 178 180 165 165 163 163 158 151 144 138
351 283 268 279 296 270 225 230 247 255 254 247 243 253 242 270 268 256 264 283 221 225 212 217 192 189 196 197 195 193 192 200 186 175 177 172 171 172 169 160 154 145 146 144
94 270 267 249 254 290 283 253 240 238 254 259 256 272 279 272 275 283 278 277 241 224 219 227 216 198 196 197 193 194 194 190 181 174 177 176 174 171 158 148 146 148 146 150
172 214 220 235 245 263 263 260 274 275 260 252 270 269 266 271 277 268 272 277 274 277 257 233 227 214 204 196 194 193 192 183 176 173 174 176 164 157 148 146 145 139 147 154
186 224 214 233 239 250 260 265 259 251 254 254 254 259 262 258 267 270 274 270 283 266 262 256 233 221 208 199 197 191 185 178 169 170 170 162 157 154 153 152 153 154 156 164
191 200 204 245 233 239 247 241 250 256 249 242 250 249 257 263 256 258 267 286 278 270 263 242 231 223 211 204 192 186 179 158 164 166 165 161 161 160 159 155 155 164 168 165
230 233 238 253 248 229 225 227 232 243 247 248 247 250 257 257 258 265 271 261 273 282 287 272 228 228 220 195 173 141 150 160 164 166 164 162 164 165 158 160 163 157 161 172
230 235 247 244 238 259 224 217 222 227 240 244 257 257 252 262 262 270 264 258 268 268 271 269 223 218 200 167 156 149 153 158 163 173 172 169 166 162 162 165 163 162 163 169
235 233 235 241 249 251 237 236 245 258 260 247 242 248 253 253 251 252 260 263 241 232 244 251 201 180 158 158 151 154 162 166 181 181 173 168 167 163 166 163 167 162 160 160
230 230 243 241 244 250 244 272 293 244 264 272 267 270 274 261 249 267 275 271 248 237 251 160 165 185 176 155 155 168 170 191 178 166 164 163 164 162 157 154 153 154 155 147
264 264 244 249 266 266 7 317 266 340 9 360 357 350 345 342 343 3 351 343 331 301 309 203 176 164 131 151 166 180 193 164 156 157 158 161 160 153 148 150 142 144 145 149
271 20 302 303 333 323 340 322 308 310 349 333 324 314 313 315 320 323 321 318 315 321 294 296 204 162 162 171 185 188 181 157 153 159 156 155 153 149 150 149 143 145 152 153
301 299 313 323 350 315 316 319 1 356 337 318 316 303 295 300 300 288 296 290 277 237 246 198 173 195 209 189 198 182 152 152 151 158 155 155 154 150 148 144 152 151 149 160
287 309 296 283 286 303 303 325 322 324 322 348 339 310 321 328 310 296 297 293 289 266 231 188 207 218 226 184 188 162 158 155 163 163 158 158 155 159 153 149 159 147 153 158
263 269 282 287 303 303 310 323 324 344 338 327 319 326 318 319 304 296 285 290 291 293 283 222 221 222 213 193 186 169 167 166 166 165 169 165 160 166 160 146 137 149 150 160